,,,PA_Meas_PMT16A,,PR_Meas_QMR101_102,,RH_Meas_QMH101,,SR_Meas_QMS101,,TA_Meas_QMH101,,GenWind,,GenWind,
date,time,status,PA,status,PR,status,RH,status,SR,status,TA,status,DirAvg,status,SpdAvg,
2012-11-28, 00:00:05,VALID,1009.62,VALID,0,VALID,104,VALID,0,VALID,23.0511,VALID,358,VALID,0.408984,
2012-11-28, 00:01:05,VALID,1009.59,VALID,0,VALID,104,VALID,0,VALID,23.0316,VALID,358,VALID,0.23125,
2012-11-28, 00:02:05,VALID,1009.58,VALID,0,VALID,104,VALID,0,VALID,23.0511,VALID,358,VALID,0,
2012-11-28, 00:03:05,VALID,1009.57,VALID,0,VALID,104,VALID,0,VALID,23.0316,VALID,358,VALID,0,
2012-11-28, 00:04:05,VALID,1009.56,VALID,0,VALID,104,VALID,0,VALID,23.0121,VALID,358,VALID,0.272656,
2012-11-28, 00:05:05,VALID,1009.54,VALID,0,VALID,104,VALID,0,VALID,23.0121,VALID,358,VALID,0,
2012-11-28, 00:06:05,VALID,1009.56,VALID,0,VALID,104,VALID,0,VALID,23.0316,VALID,358,VALID,0.242188,
2012-11-28, 00:07:05,VALID,1009.59,VALID,0,VALID,104,VALID,0,VALID,23.0298,VALID,358,VALID,0.258203,
2012-11-28, 00:08:05,VALID,1009.62,VALID,0,VALID,104,VALID,0,VALID,23.0688,VALID,358,VALID,0.021875,
2012-11-28, 00:09:05,VALID,1009.63,VALID,0,VALID,104,VALID,0,VALID,23.0705,VALID,358,VALID,0.0871094,
2012-11-28, 00:10:05,VALID,1009.66,VALID,0,VALID,104,VALID,0,VALID,23.0705,VALID,358,VALID,0.283203,
2012-11-28, 00:11:05,VALID,1009.65,VALID,0,VALID,104,VALID,0,VALID,23.0705,VALID,358,VALID,0.271484,
2012-11-28, 00:12:05,VALID,1009.65,VALID,0,VALID,104,VALID,0,VALID,23.0298,VALID,358,VALID,0.546094,
2012-11-28, 00:13:05,VALID,1009.68,VALID,0,VALID,104,VALID,0.112112,VALID,23.0493,VALID,358,VALID,0.531641,
2012-11-28, 00:14:05,VALID,1009.68,VALID,0,VALID,104,VALID,0,VALID,23.0705,VALID,358,VALID,0.569141,
2012-11-28, 00:15:05,VALID,1009.68,VALID,0,VALID,104,VALID,0,VALID,23.09,VALID,358,VALID,0.460156,
2012-11-28, 00:16:05,VALID,1009.68,VALID,0,VALID,104,VALID,0,VALID,23.0688,VALID,358,VALID,0.439844,
2012-11-28, 00:17:05,VALID,1009.68,VALID,0,VALID,104,VALID,0,VALID,23.0705,VALID,358,VALID,0.627734,
2012-11-28, 00:18:05,VALID,1009.69,VALID,0,VALID,104,VALID,0,VALID,23.0688,VALID,358,VALID,0.616016,
2012-11-28, 00:19:05,VALID,1009.66,VALID,0,VALID,104,VALID,0,VALID,23.09,VALID,116,VALID,0.471484,
2012-11-28, 00:20:05,VALID,1009.68,VALID,0,VALID,104,VALID,0,VALID,23.0511,VALID,116,VALID,0.556641,
2012-11-28, 00:21:05,VALID,1009.67,VALID,0,VALID,104,VALID,0,VALID,23.0316,VALID,116,VALID,0.365234,
2012-11-28, 00:22:05,VALID,1009.65,VALID,0,VALID,104,VALID,0.112112,VALID,23.0316,VALID,116,VALID,0.488672,
2012-11-28, 00:23:05,VALID,1009.65,VALID,0,VALID,104,VALID,0,VALID,23.0511,VALID,139,VALID,0.528516,
2012-11-28, 00:24:05,VALID,1009.63,VALID,0,VALID,104,VALID,0,VALID,23.0511,VALID,150,VALID,0.179297,
2012-11-28, 00:25:05,VALID,1009.59,VALID,0,VALID,104,VALID,0,VALID,23.0493,VALID,153,VALID,0.374609,
2012-11-28, 00:26:05,VALID,1009.6,VALID,0,VALID,104,VALID,0,VALID,23.0705,VALID,153,VALID,0,
2012-11-28, 00:27:05,VALID,1009.58,VALID,0,VALID,104,VALID,0,VALID,23.0316,VALID,153,VALID,0,
2012-11-28, 00:28:05,VALID,1009.57,VALID,0,VALID,104,VALID,0,VALID,23.0316,VALID,153,VALID,0.0472656,
2012-11-28, 00:29:05,VALID,1009.57,VALID,0,VALID,104,VALID,0.112112,VALID,23.0511,VALID,153,VALID,0.214062,
2012-11-28, 00:30:05,VALID,1009.55,VALID,0,VALID,104,VALID,0,VALID,22.9714,VALID,153,VALID,0.362891,
2012-11-28, 00:31:05,VALID,1009.57,VALID,0,VALID,104,VALID,0,VALID,22.9519,VALID,153,VALID,0.273047,
2012-11-28, 00:32:05,VALID,1009.59,VALID,0,VALID,104,VALID,0,VALID,22.9147,VALID,153,VALID,0.144531,
2012-11-28, 00:33:05,VALID,1009.57,VALID,0,VALID,104,VALID,0,VALID,22.8935,VALID,153,VALID,0.13125,
2012-11-28, 00:34:05,VALID,1009.58,VALID,0,VALID,104,VALID,0,VALID,22.9147,VALID,153,VALID,0.0738281,
2012-11-28, 00:35:05,VALID,1009.58,VALID,0,VALID,104,VALID,0,VALID,22.8757,VALID,153,VALID,0,
2012-11-28, 00:36:05,VALID,1009.59,VALID,0,VALID,104,VALID,0,VALID,22.8757,VALID,153,VALID,0,
2012-11-28, 00:37:05,VALID,1009.63,VALID,0,VALID,104,VALID,0,VALID,22.835,VALID,154,VALID,0,
2012-11-28, 00:38:05,VALID,1009.63,VALID,0,VALID,104,VALID,0.112112,VALID,22.7961,VALID,153,VALID,0,
2012-11-28, 00:39:05,VALID,1009.61,VALID,0,VALID,104,VALID,0,VALID,22.8368,VALID,153,VALID,0,
2012-11-28, 00:40:05,VALID,1009.6,VALID,0,VALID,104,VALID,0.112112,VALID,22.8368,VALID,153,VALID,0,
2012-11-28, 00:41:05,VALID,1009.6,VALID,0,VALID,104,VALID,0.112112,VALID,22.7961,VALID,153,VALID,0,
2012-11-28, 00:42:05,VALID,1009.59,VALID,0,VALID,104,VALID,0.112112,VALID,22.7978,VALID,153,VALID,0,
2012-11-28, 00:43:05,VALID,1009.57,VALID,0,VALID,104,VALID,0,VALID,22.7783,VALID,153,VALID,0,
2012-11-28, 00:44:05,VALID,1009.61,VALID,0,VALID,104,VALID,0,VALID,22.7961,VALID,153,VALID,0,
2012-11-28, 00:45:05,VALID,1009.57,VALID,0,VALID,104,VALID,0.112112,VALID,22.7978,VALID,153,VALID,0.258594,
2012-11-28, 00:46:05,VALID,1009.6,VALID,0,VALID,104,VALID,0.112112,VALID,22.7571,VALID,153,VALID,0.294141,
2012-11-28, 00:47:05,VALID,1009.58,VALID,0,VALID,104,VALID,0.112112,VALID,22.7411,VALID,153,VALID,0.30625,
2012-11-28, 00:48:05,VALID,1009.6,VALID,0,VALID,104,VALID,0,VALID,22.6809,VALID,153,VALID,0.15,
2012-11-28, 00:49:05,VALID,1009.58,VALID,0,VALID,104,VALID,0,VALID,22.6614,VALID,153,VALID,0.00351562,
2012-11-28, 00:50:05,VALID,1009.6,VALID,0,VALID,104,VALID,0.112112,VALID,22.6402,VALID,153,VALID,0,
2012-11-28, 00:51:05,VALID,1009.6,VALID,0,VALID,104,VALID,0,VALID,22.6225,VALID,153,VALID,0,
2012-11-28, 00:52:05,VALID,1009.6,VALID,0,VALID,104,VALID,0,VALID,22.6225,VALID,153,VALID,0,
2012-11-28, 00:53:05,VALID,1009.57,VALID,0,VALID,104,VALID,0.112112,VALID,22.6013,VALID,153,VALID,0,
2012-11-28, 00:54:05,VALID,1009.57,VALID,0,VALID,104,VALID,0,VALID,22.642,VALID,154,VALID,0,
2012-11-28, 00:55:05,VALID,1009.57,VALID,0,VALID,104,VALID,0,VALID,22.6597,VALID,153,VALID,0,
2012-11-28, 00:56:05,VALID,1009.57,VALID,0,VALID,104,VALID,0.112112,VALID,22.7004,VALID,153,VALID,0,
2012-11-28, 00:57:05,VALID,1009.56,VALID,0,VALID,104,VALID,0,VALID,22.7588,VALID,153,VALID,0,
2012-11-28, 00:58:05,VALID,1009.53,VALID,0,VALID,104,VALID,0,VALID,22.7394,VALID,153,VALID,0,
2012-11-28, 00:59:05,VALID,1009.51,VALID,0,VALID,104,VALID,0,VALID,22.7182,VALID,154,VALID,0,
2012-11-28, 01:00:05,VALID,1009.46,VALID,0,VALID,104,VALID,0,VALID,22.7783,VALID,153,VALID,0,
2012-11-28, 01:01:05,VALID,1009.45,VALID,0,VALID,104,VALID,0.112112,VALID,22.7783,VALID,153,VALID,0.151172,
2012-11-28, 01:02:05,VALID,1009.43,VALID,0,VALID,104,VALID,0,VALID,22.6597,VALID,153,VALID,0.407813,
2012-11-28, 01:03:05,VALID,1009.42,VALID,0,VALID,104,VALID,0,VALID,22.6402,VALID,153,VALID,0.533594,
2012-11-28, 01:04:05,VALID,1009.38,VALID,0,VALID,104,VALID,0,VALID,22.6208,VALID,66,VALID,0.7,
2012-11-28, 01:05:05,VALID,1009.37,VALID,0,VALID,104,VALID,0.112112,VALID,22.6402,VALID,62,VALID,0.589063,
2012-11-28, 01:06:05,VALID,1009.35,VALID,0,VALID,104,VALID,0.112112,VALID,22.6208,VALID,61,VALID,0.482422,
2012-11-28, 01:07:05,VALID,1009.34,VALID,0,VALID,104,VALID,0,VALID,22.603,VALID,62,VALID,0.332422,
2012-11-28, 01:08:05,VALID,1009.33,VALID,0,VALID,104,VALID,0,VALID,22.5835,VALID,61,VALID,0.164063,
2012-11-28, 01:09:05,VALID,1009.31,VALID,0,VALID,104,VALID,0,VALID,22.5623,VALID,62,VALID,0,
2012-11-28, 01:10:05,VALID,1009.31,VALID,0,VALID,104,VALID,0,VALID,22.5446,VALID,61,VALID,0.175391,
2012-11-28, 01:11:05,VALID,1009.3,VALID,0,VALID,104,VALID,0,VALID,22.564,VALID,62,VALID,0.0601562,
2012-11-28, 01:12:05,VALID,1009.28,VALID,0,VALID,104,VALID,0.112112,VALID,22.5429,VALID,61,VALID,0,
2012-11-28, 01:13:05,VALID,1009.29,VALID,0,VALID,104,VALID,0,VALID,22.5429,VALID,61,VALID,0,
2012-11-28, 01:14:05,VALID,1009.25,VALID,0,VALID,104,VALID,0.112112,VALID,22.5234,VALID,61,VALID,0,
2012-11-28, 01:15:05,VALID,1009.25,VALID,0,VALID,104,VALID,0.112112,VALID,22.5234,VALID,61,VALID,0,
2012-11-28, 01:16:05,VALID,1009.21,VALID,0,VALID,104,VALID,0.112112,VALID,22.5623,VALID,61,VALID,0,
2012-11-28, 01:17:05,VALID,1009.18,VALID,0,VALID,104,VALID,0.112112,VALID,22.5429,VALID,62,VALID,0,
2012-11-28, 01:18:05,VALID,1009.16,VALID,0,VALID,104,VALID,0.112112,VALID,22.5818,VALID,61,VALID,0.278125,
2012-11-28, 01:19:05,VALID,1009.17,VALID,0,VALID,104,VALID,0.224224,VALID,22.6013,VALID,61,VALID,0.449609,
2012-11-28, 01:20:05,VALID,1009.13,VALID,0,VALID,104,VALID,0,VALID,22.5818,VALID,61,VALID,0.624609,
2012-11-28, 01:21:05,VALID,1009.13,VALID,0,VALID,104,VALID,0.112112,VALID,22.6013,VALID,61,VALID,0.440234,
2012-11-28, 01:22:05,VALID,1009.11,VALID,0,VALID,104,VALID,0.112112,VALID,22.6013,VALID,61,VALID,0.348047,
2012-11-28, 01:23:05,VALID,1009.1,VALID,0,VALID,104,VALID,0,VALID,22.5818,VALID,61,VALID,0.319531,
2012-11-28, 01:24:05,VALID,1009.1,VALID,0,VALID,104,VALID,0.112112,VALID,22.6402,VALID,61,VALID,0.373437,
2012-11-28, 01:25:05,VALID,1009.08,VALID,0,VALID,104,VALID,0.112112,VALID,22.6013,VALID,55,VALID,0.601172,
2012-11-28, 01:26:05,VALID,1009.05,VALID,0,VALID,104,VALID,0.112112,VALID,22.5429,VALID,53,VALID,0.429297,
2012-11-28, 01:27:05,VALID,1009.03,VALID,0,VALID,104,VALID,0.112112,VALID,22.5429,VALID,53,VALID,0.5625,
2012-11-28, 01:28:05,VALID,1008.99,VALID,0,VALID,104,VALID,0.112112,VALID,22.5429,VALID,53,VALID,0.573828,
2012-11-28, 01:29:05,VALID,1009,VALID,0,VALID,104,VALID,0.112112,VALID,22.5429,VALID,53,VALID,0.466016,
2012-11-28, 01:30:05,VALID,1008.96,VALID,0,VALID,104,VALID,0.112112,VALID,22.564,VALID,53,VALID,0.415234,
2012-11-28, 01:31:05,VALID,1008.97,VALID,0,VALID,104,VALID,0.112112,VALID,22.5234,VALID,53,VALID,0.499609,
2012-11-28, 01:32:05,VALID,1008.98,VALID,0,VALID,104,VALID,0.112112,VALID,22.5429,VALID,53,VALID,0.396094,
2012-11-28, 01:33:05,VALID,1008.98,VALID,0,VALID,104,VALID,0.112112,VALID,22.5835,VALID,53,VALID,0.397656,
2012-11-28, 01:34:05,VALID,1008.99,VALID,0,VALID,104,VALID,0.112112,VALID,22.5623,VALID,53,VALID,0.284766,
2012-11-28, 01:35:05,VALID,1008.96,VALID,0,VALID,104,VALID,0.112112,VALID,22.5835,VALID,53,VALID,0.128906,
2012-11-28, 01:36:05,VALID,1008.99,VALID,0,VALID,104,VALID,0.112112,VALID,22.5623,VALID,53,VALID,0.0128906,
2012-11-28, 01:37:05,VALID,1008.97,VALID,0,VALID,104,VALID,0.112112,VALID,22.5818,VALID,53,VALID,0.100781,
2012-11-28, 01:38:05,VALID,1008.95,VALID,0,VALID,104,VALID,0.112112,VALID,22.5818,VALID,53,VALID,0,
2012-11-28, 01:39:05,VALID,1008.95,VALID,0,VALID,104,VALID,0.112112,VALID,22.6013,VALID,53,VALID,0,
2012-11-28, 01:40:05,VALID,1008.95,VALID,0,VALID,104,VALID,0.112112,VALID,22.6225,VALID,53,VALID,0,
2012-11-28, 01:41:05,VALID,1008.96,VALID,0,VALID,104,VALID,0.112112,VALID,22.6013,VALID,53,VALID,0,
2012-11-28, 01:42:05,VALID,1008.93,VALID,0,VALID,104,VALID,0,VALID,22.5818,VALID,53,VALID,0.0277344,
2012-11-28, 01:43:05,VALID,1008.92,VALID,0,VALID,104,VALID,0.112112,VALID,22.5818,VALID,53,VALID,0.38125,
2012-11-28, 01:44:05,VALID,1008.93,VALID,0,VALID,104,VALID,0.112112,VALID,22.5818,VALID,53,VALID,0.388672,
2012-11-28, 01:45:05,VALID,1008.93,VALID,0,VALID,104,VALID,0.112112,VALID,22.5623,VALID,53,VALID,0.323828,
2012-11-28, 01:46:05,VALID,1008.89,VALID,0,VALID,104,VALID,0.112112,VALID,22.564,VALID,53,VALID,0.00585938,
2012-11-28, 01:47:05,VALID,1008.89,VALID,0,VALID,104,VALID,0.112112,VALID,22.564,VALID,53,VALID,0.278906,
2012-11-28, 01:48:05,VALID,1008.89,VALID,0,VALID,104,VALID,0.112112,VALID,22.5429,VALID,53,VALID,0.242188,
2012-11-28, 01:49:05,VALID,1008.89,VALID,0,VALID,104,VALID,0.112112,VALID,22.5623,VALID,53,VALID,0.346484,
2012-11-28, 01:50:05,VALID,1008.88,VALID,0,VALID,104,VALID,0.112112,VALID,22.6208,VALID,53,VALID,0.285547,
2012-11-28, 01:51:05,VALID,1008.86,VALID,0,VALID,104,VALID,0.112112,VALID,22.6402,VALID,53,VALID,0.275781,
2012-11-28, 01:52:05,VALID,1008.88,VALID,0,VALID,104,VALID,0.112112,VALID,22.6208,VALID,53,VALID,0.179688,
2012-11-28, 01:53:05,VALID,1008.87,VALID,0,VALID,104,VALID,0.112112,VALID,22.6208,VALID,53,VALID,0.0382813,
2012-11-28, 01:54:05,VALID,1008.85,VALID,0,VALID,104,VALID,0.112112,VALID,22.6402,VALID,53,VALID,0,
2012-11-28, 01:55:05,VALID,1008.83,VALID,0,VALID,104,VALID,0.112112,VALID,22.6597,VALID,53,VALID,0,
2012-11-28, 01:56:05,VALID,1008.82,VALID,0,VALID,104,VALID,0.112112,VALID,22.6402,VALID,53,VALID,0,
2012-11-28, 01:57:05,VALID,1008.79,VALID,0,VALID,104,VALID,0.112112,VALID,22.6225,VALID,53,VALID,0,
2012-11-28, 01:58:05,VALID,1008.79,VALID,0,VALID,104,VALID,0.112112,VALID,22.6013,VALID,53,VALID,0.296094,
2012-11-28, 01:59:05,VALID,1008.78,VALID,0,VALID,104,VALID,0.112112,VALID,22.5429,VALID,53,VALID,0.361328,
2012-11-28, 02:00:05,VALID,1008.74,VALID,0,VALID,104,VALID,0.112112,VALID,22.5429,VALID,53,VALID,0.614062,
2012-11-28, 02:01:05,VALID,1008.7,VALID,0,VALID,104,VALID,0.112112,VALID,22.5234,VALID,53,VALID,0.254687,
2012-11-28, 02:02:05,VALID,1008.71,VALID,0,VALID,104,VALID,0,VALID,22.5446,VALID,53,VALID,0.333203,
2012-11-28, 02:03:05,VALID,1008.69,VALID,0,VALID,104,VALID,0.112112,VALID,22.5234,VALID,53,VALID,0.507422,
2012-11-28, 02:04:05,VALID,1008.65,VALID,0,VALID,104,VALID,0,VALID,22.5835,VALID,53,VALID,0.296484,
2012-11-28, 02:05:05,VALID,1008.65,VALID,0,VALID,104,VALID,0.112112,VALID,22.5835,VALID,53,VALID,0.207422,
2012-11-28, 02:06:05,VALID,1008.64,VALID,0,VALID,104,VALID,0.112112,VALID,22.603,VALID,53,VALID,0,
2012-11-28, 02:07:05,VALID,1008.63,VALID,0,VALID,104,VALID,0.112112,VALID,22.5818,VALID,53,VALID,0.06875,
2012-11-28, 02:08:05,VALID,1008.63,VALID,0,VALID,104,VALID,0,VALID,22.6225,VALID,53,VALID,0,
2012-11-28, 02:09:05,VALID,1008.63,VALID,0,VALID,104,VALID,0,VALID,22.6013,VALID,53,VALID,0,
2012-11-28, 02:10:05,VALID,1008.62,VALID,0,VALID,104,VALID,0,VALID,22.6208,VALID,53,VALID,0,
2012-11-28, 02:11:05,VALID,1008.61,VALID,0,VALID,104,VALID,0,VALID,22.603,VALID,53,VALID,0,
2012-11-28, 02:12:05,VALID,1008.63,VALID,0,VALID,104,VALID,0,VALID,22.603,VALID,53,VALID,0,
2012-11-28, 02:13:05,VALID,1008.63,VALID,0,VALID,104,VALID,0,VALID,22.603,VALID,53,VALID,0.0410156,
2012-11-28, 02:14:05,VALID,1008.65,VALID,0,VALID,104,VALID,0.112112,VALID,22.6208,VALID,53,VALID,0.0132813,
2012-11-28, 02:15:05,VALID,1008.68,VALID,0,VALID,104,VALID,0,VALID,22.603,VALID,53,VALID,0,
2012-11-28, 02:16:05,VALID,1008.67,VALID,0,VALID,104,VALID,0.112112,VALID,22.642,VALID,53,VALID,0.115234,
2012-11-28, 02:17:05,VALID,1008.64,VALID,0,VALID,104,VALID,0,VALID,22.6402,VALID,53,VALID,0.201172,
2012-11-28, 02:18:05,VALID,1008.61,VALID,0,VALID,104,VALID,0.112112,VALID,22.6809,VALID,53,VALID,0.405469,
2012-11-28, 02:19:05,VALID,1008.61,VALID,0,VALID,104,VALID,0,VALID,22.6402,VALID,53,VALID,0.221484,
2012-11-28, 02:20:05,VALID,1008.59,VALID,0,VALID,104,VALID,0.112112,VALID,22.6225,VALID,53,VALID,0.333203,
2012-11-28, 02:21:05,VALID,1008.57,VALID,0,VALID,104,VALID,0.112112,VALID,22.642,VALID,53,VALID,0.316406,
2012-11-28, 02:22:05,VALID,1008.57,VALID,0,VALID,104,VALID,0.112112,VALID,22.6208,VALID,53,VALID,0.316406,
2012-11-28, 02:23:05,VALID,1008.55,VALID,0,VALID,104,VALID,0,VALID,22.5835,VALID,53,VALID,0.246094,
2012-11-28, 02:24:05,VALID,1008.55,VALID,0,VALID,104,VALID,0,VALID,22.5623,VALID,53,VALID,0.208984,
2012-11-28, 02:25:05,VALID,1008.55,VALID,0,VALID,104,VALID,0.112112,VALID,22.5234,VALID,53,VALID,0,
2012-11-28, 02:26:05,VALID,1008.55,VALID,0,VALID,104,VALID,0,VALID,22.5039,VALID,53,VALID,0,
2012-11-28, 02:27:05,VALID,1008.55,VALID,0,VALID,104,VALID,0,VALID,22.5039,VALID,53,VALID,0,
2012-11-28, 02:28:05,VALID,1008.55,VALID,0,VALID,104,VALID,0,VALID,22.5234,VALID,53,VALID,0,
2012-11-28, 02:29:04,VALID,1008.56,VALID,0,VALID,104,VALID,0.112112,VALID,22.5039,VALID,53,VALID,0,
2012-11-28, 02:30:04,VALID,1008.57,VALID,0,VALID,104,VALID,0,VALID,22.5446,VALID,53,VALID,0,
2012-11-28, 02:31:04,VALID,1008.54,VALID,0,VALID,104,VALID,0,VALID,22.5039,VALID,53,VALID,0.394922,
2012-11-28, 02:32:04,VALID,1008.52,VALID,0,VALID,104,VALID,0,VALID,22.5251,VALID,53,VALID,0.448828,
2012-11-28, 02:33:04,VALID,1008.53,VALID,0,VALID,104,VALID,0,VALID,22.465,VALID,53,VALID,0.455859,
2012-11-28, 02:34:04,VALID,1008.48,VALID,0,VALID,104,VALID,0.112112,VALID,22.4667,VALID,53,VALID,0.341016,
2012-11-28, 02:35:04,VALID,1008.53,VALID,0,VALID,104,VALID,0.112112,VALID,22.4455,VALID,53,VALID,0.425781,
2012-11-28, 02:36:04,VALID,1008.48,VALID,0,VALID,104,VALID,0.112112,VALID,22.4472,VALID,53,VALID,0.332422,
2012-11-28, 02:37:04,VALID,1008.49,VALID,0,VALID,104,VALID,0,VALID,22.4472,VALID,53,VALID,0.489844,
2012-11-28, 02:38:04,VALID,1008.51,VALID,0,VALID,104,VALID,0,VALID,22.4082,VALID,53,VALID,0.551562,
2012-11-28, 02:39:04,VALID,1008.52,VALID,0,VALID,104,VALID,0,VALID,22.4667,VALID,53,VALID,0.622656,
2012-11-28, 02:40:04,VALID,1008.51,VALID,0,VALID,104,VALID,0,VALID,22.4667,VALID,53,VALID,0.557422,
2012-11-28, 02:41:04,VALID,1008.53,VALID,0,VALID,104,VALID,0,VALID,22.4277,VALID,53,VALID,0.54375,
2012-11-28, 02:42:04,VALID,1008.52,VALID,0,VALID,104,VALID,0,VALID,22.4472,VALID,53,VALID,0.417578,
2012-11-28, 02:43:04,VALID,1008.5,VALID,0,VALID,104,VALID,0,VALID,22.4472,VALID,53,VALID,0.374609,
2012-11-28, 02:44:04,VALID,1008.51,VALID,0,VALID,104,VALID,0,VALID,22.4082,VALID,53,VALID,0.4,
2012-11-28, 02:45:04,VALID,1008.49,VALID,0,VALID,104,VALID,0.112112,VALID,22.426,VALID,53,VALID,0.112891,
2012-11-28, 02:46:04,VALID,1008.5,VALID,0,VALID,104,VALID,0.112112,VALID,22.4277,VALID,53,VALID,0,
2012-11-28, 02:47:04,VALID,1008.52,VALID,0,VALID,104,VALID,0.112112,VALID,22.426,VALID,53,VALID,0,
2012-11-28, 02:48:04,VALID,1008.48,VALID,0,VALID,104,VALID,0,VALID,22.3481,VALID,53,VALID,0,
2012-11-28, 02:49:04,VALID,1008.5,VALID,0,VALID,104,VALID,0,VALID,22.4472,VALID,53,VALID,0,
2012-11-28, 02:50:04,VALID,1008.51,VALID,0,VALID,104,VALID,0.112112,VALID,22.3887,VALID,53,VALID,0.0371094,
2012-11-28, 02:51:04,VALID,1008.51,VALID,0,VALID,104,VALID,0.112112,VALID,22.4277,VALID,53,VALID,0.149219,
2012-11-28, 02:52:04,VALID,1008.55,VALID,0,VALID,104,VALID,0,VALID,22.4277,VALID,53,VALID,0.144922,
2012-11-28, 02:53:04,VALID,1008.5,VALID,0,VALID,104,VALID,0.112112,VALID,22.465,VALID,53,VALID,0.147266,
2012-11-28, 02:54:04,VALID,1008.52,VALID,0,VALID,104,VALID,0.112112,VALID,22.426,VALID,53,VALID,0.24375,
2012-11-28, 02:55:04,VALID,1008.5,VALID,0,VALID,104,VALID,0,VALID,22.4065,VALID,53,VALID,0.458203,
2012-11-28, 02:56:04,VALID,1008.47,VALID,0,VALID,104,VALID,0.112112,VALID,22.426,VALID,53,VALID,0.633203,
2012-11-28, 02:57:04,VALID,1008.46,VALID,0,VALID,104,VALID,0,VALID,22.426,VALID,128,VALID,0.669141,
2012-11-28, 02:58:04,VALID,1008.44,VALID,0,VALID,104,VALID,0.112112,VALID,22.4455,VALID,128,VALID,0.671484,
2012-11-28, 02:59:04,VALID,1008.45,VALID,0,VALID,104,VALID,0.112112,VALID,22.426,VALID,127,VALID,0.709375,
2012-11-28, 03:00:04,VALID,1008.45,VALID,0,VALID,104,VALID,0.112112,VALID,22.387,VALID,127,VALID,0.439063,
2012-11-28, 03:01:04,VALID,1008.43,VALID,0,VALID,104,VALID,0.112112,VALID,22.426,VALID,127,VALID,0.335547,
2012-11-28, 03:02:04,VALID,1008.39,VALID,0,VALID,104,VALID,0,VALID,22.4489,VALID,127,VALID,0.273438,
2012-11-28, 03:03:04,VALID,1008.36,VALID,0,VALID,104,VALID,0,VALID,22.4082,VALID,126,VALID,0.514844,
2012-11-28, 03:04:04,VALID,1008.36,VALID,0,VALID,104,VALID,0,VALID,22.4294,VALID,86,VALID,0.522266,
2012-11-28, 03:05:04,VALID,1008.33,VALID,0,VALID,104,VALID,0,VALID,22.4099,VALID,77,VALID,0.458984,
2012-11-28, 03:06:04,VALID,1008.26,VALID,0,VALID,104,VALID,0,VALID,22.4082,VALID,77,VALID,0.337109,
2012-11-28, 03:07:04,VALID,1008.27,VALID,0,VALID,104,VALID,0,VALID,22.4294,VALID,73,VALID,0.598828,
2012-11-28, 03:08:04,VALID,1008.27,VALID,0,VALID,104,VALID,0,VALID,22.3887,VALID,52,VALID,0.625,
2012-11-28, 03:09:04,VALID,1008.24,VALID,0,VALID,104,VALID,0,VALID,22.4294,VALID,23,VALID,0.463672,
2012-11-28, 03:10:04,VALID,1008.24,VALID,0,VALID,104,VALID,0,VALID,22.3498,VALID,11,VALID,0.439063,
2012-11-28, 03:11:04,VALID,1008.24,VALID,0,VALID,104,VALID,0,VALID,22.2914,VALID,11,VALID,0.195703,
2012-11-28, 03:12:04,VALID,1008.23,VALID,0,VALID,104,VALID,0,VALID,22.2719,VALID,11,VALID,0.258203,
2012-11-28, 03:13:04,VALID,1008.22,VALID,0,VALID,104,VALID,0,VALID,22.2524,VALID,11,VALID,0,
2012-11-28, 03:14:04,VALID,1008.24,VALID,0,VALID,104,VALID,0,VALID,22.2914,VALID,11,VALID,0.141016,
2012-11-28, 03:15:04,VALID,1008.23,VALID,0,VALID,104,VALID,0,VALID,22.3108,VALID,11,VALID,0.00273437,
2012-11-28, 03:16:04,VALID,1008.25,VALID,0,VALID,104,VALID,0,VALID,22.2914,VALID,11,VALID,0.00429688,
2012-11-28, 03:17:04,VALID,1008.26,VALID,0,VALID,104,VALID,0,VALID,22.2719,VALID,11,VALID,0,
2012-11-28, 03:18:04,VALID,1008.29,VALID,0,VALID,104,VALID,0.112112,VALID,22.2702,VALID,11,VALID,0,
2012-11-28, 03:19:04,VALID,1008.31,VALID,0,VALID,104,VALID,0.112112,VALID,22.3108,VALID,11,VALID,0,
2012-11-28, 03:20:04,VALID,1008.33,VALID,0,VALID,104,VALID,0,VALID,22.3303,VALID,11,VALID,0.172266,
2012-11-28, 03:21:04,VALID,1008.33,VALID,0,VALID,104,VALID,0,VALID,22.3108,VALID,11,VALID,0.120703,
2012-11-28, 03:22:04,VALID,1008.37,VALID,0,VALID,104,VALID,0,VALID,22.3091,VALID,11,VALID,0.0359375,
2012-11-28, 03:23:04,VALID,1008.36,VALID,0,VALID,104,VALID,0.112112,VALID,22.3303,VALID,11,VALID,0,
2012-11-28, 03:24:04,VALID,1008.36,VALID,0,VALID,104,VALID,0,VALID,22.2897,VALID,11,VALID,0,
2012-11-28, 03:25:04,VALID,1008.36,VALID,0,VALID,104,VALID,0.112112,VALID,22.3286,VALID,11,VALID,0,
2012-11-28, 03:26:04,VALID,1008.37,VALID,0,VALID,104,VALID,0,VALID,22.3108,VALID,11,VALID,0,
2012-11-28, 03:27:04,VALID,1008.39,VALID,0,VALID,104,VALID,0,VALID,22.3286,VALID,11,VALID,0.264844,
2012-11-28, 03:28:04,VALID,1008.43,VALID,0,VALID,104,VALID,0.112112,VALID,22.3303,VALID,11,VALID,0.325391,
2012-11-28, 03:29:04,VALID,1008.44,VALID,0,VALID,104,VALID,0.112112,VALID,22.3108,VALID,11,VALID,0.427344,
2012-11-28, 03:30:04,VALID,1008.43,VALID,0,VALID,104,VALID,0.112112,VALID,22.2702,VALID,11,VALID,0.420312,
2012-11-28, 03:31:04,VALID,1008.46,VALID,0,VALID,104,VALID,0.112112,VALID,22.2134,VALID,11,VALID,0.176172,
2012-11-28, 03:32:04,VALID,1008.48,VALID,0,VALID,104,VALID,0,VALID,22.2134,VALID,11,VALID,0.307031,
2012-11-28, 03:33:04,VALID,1008.5,VALID,0,VALID,104,VALID,0,VALID,22.1728,VALID,11,VALID,0.332031,
2012-11-28, 03:34:04,VALID,1008.53,VALID,0,VALID,104,VALID,0,VALID,22.1339,VALID,11,VALID,0.220703,
2012-11-28, 03:35:04,VALID,1008.53,VALID,0,VALID,104,VALID,0.112112,VALID,22.155,VALID,11,VALID,0.137891,
2012-11-28, 03:36:04,VALID,1008.55,VALID,0,VALID,104,VALID,0,VALID,22.155,VALID,11,VALID,0.0410156,
2012-11-28, 03:37:04,VALID,1008.54,VALID,0,VALID,104,VALID,0,VALID,22.1355,VALID,11,VALID,0,
2012-11-28, 03:38:04,VALID,1008.59,VALID,0,VALID,104,VALID,0.112112,VALID,22.1161,VALID,11,VALID,0,
2012-11-28, 03:39:04,VALID,1008.57,VALID,0,VALID,104,VALID,0.112112,VALID,22.1161,VALID,11,VALID,0.349219,
2012-11-28, 03:40:04,VALID,1008.63,VALID,0,VALID,104,VALID,0,VALID,22.1355,VALID,11,VALID,0.457812,
2012-11-28, 03:41:04,VALID,1008.64,VALID,0,VALID,104,VALID,0,VALID,22.1161,VALID,11,VALID,0.443359,
2012-11-28, 03:42:04,VALID,1008.67,VALID,0,VALID,104,VALID,0.112112,VALID,22.1355,VALID,11,VALID,0.244922,
2012-11-28, 03:43:04,VALID,1008.66,VALID,0,VALID,104,VALID,0,VALID,22.1161,VALID,11,VALID,0.267578,
2012-11-28, 03:44:04,VALID,1008.65,VALID,0,VALID,104,VALID,0.112112,VALID,22.1161,VALID,11,VALID,0.1375,
2012-11-28, 03:45:04,VALID,1008.68,VALID,0,VALID,104,VALID,0,VALID,22.0966,VALID,11,VALID,0.0566406,
2012-11-28, 03:46:04,VALID,1008.68,VALID,0,VALID,104,VALID,0.112112,VALID,22.0949,VALID,12,VALID,0.399609,
2012-11-28, 03:47:04,VALID,1008.72,VALID,0,VALID,104,VALID,0.112112,VALID,22.0754,VALID,12,VALID,0.508984,
2012-11-28, 03:48:04,VALID,1008.72,VALID,0,VALID,104,VALID,0,VALID,22.0966,VALID,11,VALID,0.484766,
2012-11-28, 03:49:04,VALID,1008.76,VALID,0,VALID,104,VALID,0,VALID,22.056,VALID,11,VALID,0.33125,
2012-11-28, 03:50:04,VALID,1008.75,VALID,0,VALID,104,VALID,0,VALID,22.0966,VALID,11,VALID,0.401172,
2012-11-28, 03:51:04,VALID,1008.8,VALID,0,VALID,104,VALID,0.112112,VALID,22.0754,VALID,11,VALID,0.303516,
2012-11-28, 03:52:04,VALID,1008.82,VALID,0,VALID,104,VALID,0,VALID,22.056,VALID,11,VALID,0.321094,